This demonstration page uses our WeatherBlox Daily Observations layout. Learn more.

Left ArrowRight Arrow

Hourly Observations for September 7, 2017

Temp ( °F °C ) Dew Point ( °F °C ) Humidity (%) Winds ( mph kmh ) Pressure ( in mb ) Visibility ( mi km ) Precip ( " mm )
12:10 am 00:10 Mostly Cloudy 48 9 48 9 100 100 Calm 30.09 1019 1.5 2.41401 N/A
12:30 am 00:30 Clear 48 9 48 9 100 100 WSW 3 6 30.09 1019 10 16.0934 N/A
12:49 am 00:49 Clear 48 9 48 9 100 100 WSW 3 6 30.09 1019 10 16.0934 N/A
1:10 am 01:10 Clear 48 9 48 9 100 100 WSW 5 7 30.09 1019 10 16.0934 N/A
1:30 am 01:30 Clear 48 9 48 9 100 100 W 3 6 30.09 1019 4 6.43736 N/A
1:49 am 01:49 Clear 48 9 46 8 94 94 W 6 9 30.09 1019 10 16.0934 N/A
2:10 am 02:10 Clear 46 8 46 8 100 100 WSW 5 7 30.09 1019 10 16.0934 N/A
2:30 am 02:30 Clear 46 8 46 8 100 100 WSW 5 7 30.09 1019 10 16.0934 N/A
2:49 am 02:49 Clear 46 8 46 8 100 100 WSW 6 9 30.09 1019 10 16.0934 N/A
3:10 am 03:10 Clear 46 8 46 8 100 100 W 6 9 30.09 1019 10 16.0934 N/A
3:30 am 03:30 Clear 46 8 46 8 100 100 W 6 9 30.09 1019 10 16.0934 N/A
3:49 am 03:49 Clear 46 8 46 8 100 100 W 5 7 30.06 1018 10 16.0934 N/A
4:10 am 04:10 Clear 46 8 46 8 100 100 WSW 6 9 30.06 1018 10 16.0934 N/A
4:29 am 04:29 Clear 46 8 45 7 93 93 W 6 9 30.09 1019 10 16.0934 N/A
4:50 am 04:50 Clear 46 8 45 7 93 93 W 5 7 30.06 1018 10 16.0934 N/A
5:10 am 05:10 Clear 46 8 45 7 93 93 W 5 7 30.09 1019 10 16.0934 N/A
5:29 am 05:29 Clear 46 8 45 7 93 93 WSW 6 9 30.09 1019 10 16.0934 N/A
5:50 am 05:50 Clear 46 8 45 7 93 93 WSW 5 7 30.09 1019 10 16.0934 N/A
6:10 am 06:10 Clear 46 8 45 7 93 93 WSW 6 9 30.09 1019 10 16.0934 N/A
6:29 am 06:29 Clear 46 8 46 8 100 100 WSW 5 7 30.09 1019 10 16.0934 N/A
6:50 am 06:50 Clear 46 8 45 7 93 93 WSW 5 7 30.09 1019 10 16.0934 N/A
7:10 am 07:10 Clear 46 8 45 7 93 93 W 6 9 30.09 1019 10 16.0934 N/A
7:30 am 07:30 Sunny 45 7 45 7 100 100 W 6 9 30.09 1019 10 16.0934 N/A
7:50 am 07:50 Sunny 45 7 45 7 100 100 W 5 7 30.09 1019 10 16.0934 N/A
8:10 am 08:10 Sunny 46 8 45 7 93 93 W 5 7 30.12 1020 10 16.0934 N/A
8:30 am 08:30 Sunny 48 9 46 8 94 94 WSW 5 7 30.12 1020 10 16.0934 N/A
8:49 am 08:49 Sunny 48 9 46 8 94 94 W 6 9 30.12 1020 10 16.0934 N/A
9:10 am 09:10 Sunny 50 10 48 9 94 94 W 6 9 30.12 1020 10 16.0934 N/A
9:30 am 09:30 Sunny 52 11 48 9 88 88 W 7 11 30.12 1020 10 16.0934 N/A
9:49 am 09:49 Sunny 54 12 50 10 88 88 W 5 7 30.12 1020 10 16.0934 N/A
10:10 am 10:10 Sunny 55 13 50 10 82 82 W 6 9 30.09 1019 10 16.0934 N/A
10:30 am 10:30 Sunny 57 14 50 10 77 77 W 7 11 30.09 1019 10 16.0934 N/A
10:49 am 10:49 Sunny 59 15 50 10 72 72 W 8 13 30.09 1019 10 16.0934 N/A
11:10 am 11:10 Sunny 61 16 48 9 63 63 W 6 9 30.09 1019 10 16.0934 N/A
11:30 am 11:30 Sunny 61 16 50 10 68 68 W 12 19 30.09 1019 10 16.0934 N/A
11:49 am 11:49 Partly Cloudy 61 16 48 9 63 63 WNW 13 20 30.09 1019 10 16.0934 N/A
12:10 pm 12:10 Mostly Cloudy 64 18 48 9 56 56 W 13 20 30.09 1019 10 16.0934 N/A
12:30 pm 12:30 Partly Cloudy 64 18 48 9 56 56 W 13 20 30.09 1019 10 16.0934 N/A
12:49 pm 12:49 Mostly Cloudy 64 18 46 8 52 52 W 14 22 30.09 1019 10 16.0934 N/A
1:10 pm 13:10 Mostly Cloudy 64 18 46 8 52 52 WNW 9 15 30.09 1019 10 16.0934 N/A
1:30 pm 13:30 Mostly Cloudy 63 17 46 8 56 56 WNW 12 19 30.09 1019 10 16.0934 N/A
1:49 pm 13:49 Cloudy 61 16 46 8 59 59 WNW 9 15 30.12 1020 10 16.0934 N/A
2:10 pm 14:10 Cloudy 64 18 46 8 52 52 WNW 14 22 30.09 1019 10 16.0934 N/A
2:30 pm 14:30 Mostly Cloudy 64 18 46 8 52 52 WNW 10 17 30.09 1019 10 16.0934 N/A
2:49 pm 14:49 Cloudy 64 18 46 8 52 52 WNW 13 20 30.09 1019 10 16.0934 N/A
3:10 pm 15:10 Cloudy 64 18 46 8 52 52 W 13 20 30.09 1019 10 16.0934 N/A
3:30 pm 15:30 Cloudy 64 18 46 8 52 52 W 8 13 30.09 1019 10 16.0934 N/A
3:49 pm 15:49 Cloudy 66 19 48 9 52 52 W 12 19 30.09 1019 10 16.0934 N/A
4:10 pm 16:10 Cloudy 66 19 46 8 49 49 W 10 17 30.09 1019 10 16.0934 N/A
4:30 pm 16:30 Cloudy 66 19 46 8 49 49 W 13 20 30.09 1019 10 16.0934 N/A
4:49 pm 16:49 Cloudy 64 18 46 8 52 52 W 13 20 30.09 1019 10 16.0934 N/A
5:10 pm 17:10 Cloudy 64 18 46 8 52 52 WNW 10 17 30.09 1019 10 16.0934 N/A
5:30 pm 17:30 Cloudy 64 18 46 8 52 52 NW 6 9 30.09 1019 10 16.0934 N/A
5:49 pm 17:49 Cloudy 63 17 48 9 59 59 NNW 5 7 30.09 1019 10 16.0934 N/A
6:10 pm 18:10 Cloudy 64 18 48 9 56 56 NW 6 9 30.09 1019 10 16.0934 N/A
6:30 pm 18:30 Cloudy 64 18 48 9 56 56 NW 5 7 30.09 1019 10 16.0934 N/A
6:49 pm 18:49 Cloudy 66 19 46 8 49 49 Calm 30.06 1018 10 16.0934 N/A
7:10 pm 19:10 Partly Cloudy 64 18 46 8 52 52 WSW 10 17 30.06 1018 10 16.0934 N/A
7:30 pm 19:30 Partly Cloudy 63 17 46 8 56 56 WSW 8 13 30.06 1018 10 16.0934 N/A
7:49 pm 19:49 Sunny 61 16 48 9 63 63 W 5 7 30.06 1018 10 16.0934 N/A
8:10 pm 20:10 Clear 59 15 50 10 72 72 Calm 30.06 1018 10 16.0934 N/A
8:30 pm 20:30 Clear 55 13 52 11 88 88 Calm 30.09 1019 10 16.0934 N/A
8:49 pm 20:49 Clear 55 13 50 10 82 82 Calm 30.09 1019 10 16.0934 N/A
9:10 pm 21:10 Clear 54 12 50 10 88 88 SSW 3 6 30.12 1020 10 16.0934 N/A
9:30 pm 21:30 Clear 54 12 50 10 88 88 S 3 6 30.12 1020 10 16.0934 N/A
9:49 pm 21:49 Clear 52 11 50 10 94 94 S 3 6 30.12 1020 10 16.0934 N/A
10:10 pm 22:10 Clear 52 11 48 9 88 88 SSW 5 7 30.12 1020 10 16.0934 N/A
10:30 pm 22:30 Clear 52 11 48 9 88 88 SSW 5 7 30.12 1020 10 16.0934 N/A
10:49 pm 22:49 Clear 52 11 48 9 88 88 Calm 30.12 1020 10 16.0934 N/A
11:10 pm 23:10 Clear 50 10 48 9 94 94 Calm 30.15 1021 10 16.0934 N/A
11:29 pm 23:29 Clear 52 11 48 9 88 88 SSW 3 6 30.15 1021 10 16.0934 N/A
11:50 pm 23:50 Clear 52 11 46 8 82 82 Calm 30.15 1021 10 16.0934 N/A

Powered by AerisWeather